Tracking 30692 objects as of 16-Jun-2025
HD Live streaming from Space Station
objects crossing your sky now

STARLINK-31099

Track STARLINK-31099 now!
10-day predictions
STARLINK-31099 is classified as:


NORAD ID: 58781
Int'l Code: 2024-011S
Perigee: 558.1 km
Apogee: 559.6 km
Inclination: 53.2 °
Period: 95.7 minutes
Semi major axis: 6929 km
RCS: Unknown
Launch date: January 14, 2024
Source: United States (US)
Launch site: AIR FORCE WESTERN TEST RANGE (AFWTR)
Your satellite tracking list
Your tracking list is empty




NASA's NSSDC Master Catalog

Two Line Element Set (TLE):
1 58781U 24011S   25167.28985523  .00000072  00000-0  24381-4 0  9991
2 58781  53.1594 166.1338 0001119  75.4822 284.6292 15.04930779 79550
Source of the keplerian elements: AFSPC